{"data":{"norad_id":61617,"intl_designator":"2024-190A","name":"YAOGAN-43 03A","alt_names":[],"object_type":"PAYLOAD","status":"ACTIVE","operator":null,"country":"PRC","launch_date":"2024-10-23","launch_site_code":"XICLF","launch_vehicle":null,"mission":null,"orbit_class":"UNKNOWN","rcs_meters":null,"size_class":null,"mass_kg":null,"dimensions":null,"purposes":[],"wikipedia_slug":null,"has_3d_model":false,"image_url":null,"decayed_at":null,"tle_current":{"epoch":"2026-05-24T23:24:35.161344Z","epoch_age_seconds":70543,"freshness":"FRESH","line1":"1 61617U 24190A   26144.97540696  .00006615  00000+0  27561-3 0  9991","line2":"2 61617  34.9912 343.7242 0004058 124.6257 235.4840 15.23026646 88322","mean_motion":15.23026646,"eccentricity":0.0004058,"inclination_deg":34.9912,"raan_deg":343.7242,"arg_perigee_deg":124.6257,"mean_anomaly_deg":235.484,"bstar":0.00027561,"rev_number":8832,"period_min":94.548575613036,"perigee_km":493.92761740668,"apogee_km":499.50724926478,"semimajor_km":6874.8544333357,"source":"CELESTRAK","updated_at":"2026-05-25T13:38:02.453911Z"}}}